Tiempo cada hora Mulungu

Hoy, 21 Octubre, Miércoles

Tiempo Temperatura Precipitaciones Viento Presión Humedad
00:00 +24°C° 0 mm 2 mps 752 mmHg 90%
01:00 +24°C° 0 mm 2 mps 752 mmHg 91%
02:00 +24°C° 0 mm 2 mps 752 mmHg 92%
03:00 +22°C° 0 mm 3 mps 751 mmHg 93%
04:00 +22°C° 0 mm 3 mps 751 mmHg 93%
05:00 +24°C° 0 mm 3 mps 752 mmHg 89%
06:00 +25°C° 0 mm 3 mps 752 mmHg 86%
07:00 +25°C° 0 mm 4 mps 752 mmHg 82%
08:00 +27°C° 0.1 mm 5 mps 752 mmHg 73%
09:00 +30°C° 0.1 mm 5 mps 753 mmHg 65%
10:00 +33°C° 0.1 mm 6 mps 753 mmHg 56%
11:00 +34°C° 0.1 mm 7 mps 752 mmHg 53%
12:00 +35°C° 0.1 mm 7 mps 752 mmHg 50%
13:00 +36°C° 0.1 mm 7 mps 752 mmHg 47%
14:00 +35°C° 0 mm 7 mps 751 mmHg 48%
15:00 +35°C° 0 mm 7 mps 751 mmHg 49%
16:00 +34°C° 0 mm 7 mps 750 mmHg 51%
17:00 +32°C° 0 mm 6 mps 751 mmHg 58%
18:00 +29°C° 0 mm 5 mps 751 mmHg 66%
19:00 +28°C° 0 mm 4 mps 751 mmHg 73%
20:00 +27°C° 0 mm 4 mps 752 mmHg 78%
21:00 +26°C° 0 mm 3 mps 752 mmHg 84%
22:00 +25°C° 0 mm 3 mps 752 mmHg 89%
23:00 +25°C° 0 mm 2 mps 752 mmHg 91%

Mañana, 22 Octubre, Jueves

Tiempo Temperatura Precipitaciones Viento Presión Humedad
00:00 +25°C° 0 mm 2 mps 752 mmHg 93%
01:00 +24°C° 0 mm 2 mps 752 mmHg 95%
02:00 +24°C° 0.1 mm 2 mps 751 mmHg 95%
03:00 +24°C° 0.1 mm 2 mps 751 mmHg 95%
04:00 +24°C° 0.1 mm 2 mps 750 mmHg 95%
05:00 +25°C° 0.1 mm 2 mps 751 mmHg 93%
06:00 +25°C° 0.1 mm 3 mps 751 mmHg 91%
07:00 +26°C° 0.1 mm 3 mps 752 mmHg 89%
08:00 +27°C° 0.2 mm 4 mps 752 mmHg 81%
09:00 +29°C° 0.2 mm 5 mps 752 mmHg 73%
10:00 +32°C° 0.2 mm 5 mps 752 mmHg 65%
11:00 +33°C° 0.2 mm 6 mps 752 mmHg 58%
12:00 +35°C° 0.2 mm 6 mps 751 mmHg 51%
13:00 +38°C° 0.2 mm 7 mps 751 mmHg 44%
14:00 +36°C° 0 mm 7 mps 750 mmHg 46%
15:00 +35°C° 0 mm 7 mps 750 mmHg 49%
16:00 +34°C° 0 mm 7 mps 750 mmHg 52%
17:00 +32°C° 0 mm 6 mps 750 mmHg 60%
18:00 +29°C° 0 mm 5 mps 750 mmHg 69%
19:00 +28°C° 0 mm 4 mps 751 mmHg 77%
20:00 +27°C° 0 mm 3 mps 751 mmHg 82%
21:00 +26°C° 0 mm 3 mps 752 mmHg 87%
22:00 +26°C° 0 mm 2 mps 752 mmHg 91%
23:00 +25°C° 0.2 mm 2 mps 752 mmHg 92%

Pasado mañana, 23 Octubre, Viernes

Tiempo Temperatura Precipitaciones Viento Presión Humedad
00:00 +25°C° 0.2 mm 2 mps 752 mmHg 93%
01:00 +25°C° 0.2 mm 2 mps 751 mmHg 94%
02:00 +25°C° 0.2 mm 1 mps 751 mmHg 94%
03:00 +25°C° 0.2 mm 1 mps 751 mmHg 94%
04:00 +25°C° 0.2 mm 1 mps 751 mmHg 94%
05:00 +25°C° 0 mm 1 mps 751 mmHg 92%
06:00 +26°C° 0 mm 1 mps 751 mmHg 89%
07:00 +26°C° 0 mm 1 mps 752 mmHg 87%
08:00 +28°C° 0.1 mm 2 mps 752 mmHg 76%
09:00 +30°C° 0.1 mm 3 mps 752 mmHg 66%
10:00 +33°C° 0.1 mm 4 mps 752 mmHg 55%
11:00 +34°C° 0.1 mm 5 mps 752 mmHg 52%
12:00 +35°C° 0.1 mm 5 mps 751 mmHg 48%
13:00 +36°C° 0.1 mm 6 mps 751 mmHg 45%
14:00 +35°C° 0 mm 6 mps 750 mmHg 47%
15:00 +34°C° 0 mm 7 mps 750 mmHg 49%
16:00 +34°C° 0 mm 7 mps 750 mmHg 51%
17:00 +32°C° 0 mm 6 mps 750 mmHg 59%
18:00 +29°C° 0 mm 5 mps 750 mmHg 68%
19:00 +27°C° 0 mm 4 mps 751 mmHg 76%
20:00 +27°C° 0.1 mm 3 mps 751 mmHg 80%
21:00 +26°C° 0.1 mm 3 mps 751 mmHg 85%
22:00 +25°C° 0.1 mm 2 mps 752 mmHg 89%
23:00 +25°C° 0 mm 2 mps 751 mmHg 91%

24 Octubre, Sábado

Tiempo Temperatura Precipitaciones Viento Presión Humedad
00:00 +25°C° 0 mm 2 mps 751 mmHg 93%
01:00 +25°C° 0 mm 1 mps 751 mmHg 95%
02:00 +24°C° 0.1 mm 1 mps 750 mmHg 95%
03:00 +24°C° 0.1 mm 1 mps 750 mmHg 96%
04:00 +24°C° 0.1 mm 1 mps 749 mmHg 96%
05:00 +25°C° 0.2 mm 2 mps 750 mmHg 94%
06:00 +25°C° 0.2 mm 2 mps 750 mmHg 92%
07:00 +26°C° 0.2 mm 3 mps 751 mmHg 89%
08:00 +28°C° 0.4 mm 4 mps 751 mmHg 80%
09:00 +30°C° 0.4 mm 4 mps 751 mmHg 71%
10:00 +32°C° 0.4 mm 5 mps 752 mmHg 62%
11:00 +33°C° 0.9 mm 5 mps 751 mmHg 60%
12:00 +33°C° 0.9 mm 6 mps 751 mmHg 58%
13:00 +34°C° 0.9 mm 6 mps 750 mmHg 56%
14:00 +33°C° 0.7 mm 6 mps 750 mmHg 57%
15:00 +33°C° 0.7 mm 6 mps 750 mmHg 58%
16:00 +33°C° 0.7 mm 6 mps 749 mmHg 59%
17:00 +30°C° 0.1 mm 5 mps 750 mmHg 66%
18:00 +29°C° 0.1 mm 4 mps 750 mmHg 73%
19:00 +27°C° 0.1 mm 4 mps 750 mmHg 80%
20:00 +26°C° 0 mm 3 mps 751 mmHg 84%
21:00 +26°C° 0 mm 2 mps 751 mmHg 87%
22:00 +25°C° 0 mm 2 mps 751 mmHg 91%
23:00 +25°C° 0.1 mm 2 mps 750 mmHg 93%

25 Octubre, Domingo

Tiempo Temperatura Precipitaciones Viento Presión Humedad
00:00 +25°C° 0.1 mm 2 mps 750 mmHg 94%
01:00 +25°C° 0.1 mm 2 mps 749 mmHg 96%
02:00 +24°C° 0.1 mm 2 mps 749 mmHg 96%
03:00 +24°C° 0.1 mm 2 mps 749 mmHg 96%
04:00 +24°C° 0.1 mm 1 mps 748 mmHg 96%
05:00 +25°C° 0.2 mm 2 mps 749 mmHg 94%
06:00 +25°C° 0.2 mm 3 mps 749 mmHg 92%
07:00 +26°C° 0.2 mm 3 mps 750 mmHg 89%
08:00 +28°C° 0.1 mm 4 mps 750 mmHg 79%
09:00 +30°C° 0.1 mm 5 mps 750 mmHg 68%
10:00 +33°C° 0.1 mm 5 mps 751 mmHg 58%
11:00 +33°C° 0.1 mm 5 mps 750 mmHg 56%
12:00 +33°C° 0.1 mm 5 mps 750 mmHg 53%
13:00 +34°C° 0.1 mm 5 mps 749 mmHg 51%
14:00 +34°C° 0 mm 6 mps 749 mmHg 51%
15:00 +34°C° 0 mm 6 mps 749 mmHg 50%
16:00 +34°C° 0 mm 6 mps 748 mmHg 50%
17:00 +32°C° 0 mm 5 mps 749 mmHg 58%
18:00 +29°C° 0 mm 4 mps 749 mmHg 67%
19:00 +27°C° 0 mm 4 mps 749 mmHg 75%
20:00 +27°C° 0 mm 3 mps 750 mmHg 80%
21:00 +26°C° 0 mm 2 mps 750 mmHg 85%
22:00 +25°C° 0 mm 1 mps 750 mmHg 90%
23:00 +25°C° 0.1 mm 1 mps 750 mmHg 91%

26 Octubre, Lunes

Tiempo Temperatura Precipitaciones Viento Presión Humedad
00:00 +25°C° 0.1 mm 1 mps 750 mmHg 92%
01:00 +23°C° 0.1 mm 0 mps 749 mmHg 92%
02:00 +23°C° 0.2 mm 0 mps 749 mmHg 93%
03:00 +25°C° 0.2 mm 1 mps 749 mmHg 93%
04:00 +25°C° 0.2 mm 1 mps 749 mmHg 93%
05:00 +25°C° 0.1 mm 1 mps 749 mmHg 90%
06:00 +26°C° 0.1 mm 2 mps 749 mmHg 87%
07:00 +26°C° 0.1 mm 2 mps 750 mmHg 83%
08:00 +28°C° 0 mm 3 mps 750 mmHg 73%
09:00 +30°C° 0 mm 4 mps 750 mmHg 62%
10:00 +33°C° 0 mm 5 mps 750 mmHg 51%
11:00 +34°C° 0 mm 5 mps 750 mmHg 47%
12:00 +35°C° 0 mm 6 mps 749 mmHg 43%
13:00 +36°C° 0 mm 6 mps 748 mmHg 39%
14:00 +36°C° 0 mm 6 mps 748 mmHg 43%
15:00 +35°C° 0 mm 6 mps 748 mmHg 47%
16:00 +34°C° 0 mm 6 mps 747 mmHg 50%
17:00 +32°C° 0 mm 6 mps 748 mmHg 59%
18:00 +29°C° 0 mm 5 mps 748 mmHg 67%
19:00 +27°C° 0 mm 4 mps 749 mmHg 76%
20:00 +27°C° 0 mm 3 mps 749 mmHg 80%
21:00 +26°C° 0 mm 3 mps 750 mmHg 84%
22:00 +25°C° 0 mm 2 mps 750 mmHg 88%
23:00 +25°C° 0 mm 2 mps 750 mmHg 90%

27 Octubre, Martes

Tiempo Temperatura Precipitaciones Viento Presión Humedad
00:00 +25°C° 0 mm 2 mps 749 mmHg 92%
01:00 +24°C° 0 mm 2 mps 749 mmHg 94%
02:00 +24°C° 0 mm 2 mps 749 mmHg 95%
03:00 +24°C° 0 mm 2 mps 749 mmHg 96%
04:00 +24°C° 0 mm 2 mps 749 mmHg 96%
05:00 +24°C° 0.1 mm 2 mps 749 mmHg 94%
06:00 +25°C° 0.1 mm 2 mps 750 mmHg 91%
07:00 +25°C° 0.1 mm 2 mps 750 mmHg 88%
08:00 +27°C° 0 mm 3 mps 750 mmHg 78%
09:00 +29°C° 0 mm 3 mps 750 mmHg 69%
10:00 +30°C° 0 mm 4 mps 751 mmHg 59%
11:00 +33°C° 0 mm 5 mps 750 mmHg 54%
12:00 +34°C° 0 mm 5 mps 750 mmHg 48%
13:00 +35°C° 0 mm 5 mps 749 mmHg 43%
14:00 +35°C° 0 mm 6 mps 749 mmHg 45%
15:00 +34°C° 0 mm 6 mps 748 mmHg 47%
16:00 +34°C° 0 mm 6 mps 748 mmHg 49%
17:00 +32°C° 0 mm 5 mps 748 mmHg 57%
18:00 +29°C° 0 mm 5 mps 748 mmHg 66%
19:00 +27°C° 0 mm 4 mps 749 mmHg 75%
20:00 +26°C° 0 mm 3 mps 749 mmHg 80%
21:00 +25°C° 0 mm 3 mps 749 mmHg 84%
22:00 +25°C° 0 mm 2 mps 750 mmHg 88%
23:00 +24°C° 0 mm 2 mps 750 mmHg 90%
Mostrar más

Necesitamos Su Consentimiento

Meteoprog y nuestros Proveedores de Servicios pueden almacenar y acceder a sus datos personales como cookies, identificadores de dispositivo u otras tecnologías similares de su dispositivo y procesar dichos datos para personalizar contenido y anuncios, además de ofrecer funciones de redes sociales y analizar el tráfico.

  • Almacenar y/o acceder a información en su dispositivo

    Se puede almacenar o acceder a cookies, identificadores de dispositivo u otra información de su dispositivo para los fines anteriormente indicados.

  • Anuncios y contenido personalizados, medición de anuncios y contenido, percepciones del público, y desarrollo de productos

    Los anuncios y el contenido pueden personalizarse en base a su perfil. Se pueden añadir más datos para personalizar mejor los anuncios y contenidos. Se puede medir el rendimiento de los anuncios y contenidos. Se puede obtener la percepción sobre el público que ha visto los anuncios y contenidos. Dichos datos pueden usarse para desarrollar o mejorar la experiencia del usuario, sistemas y software.

Al hacer clic en ‘Estoy De Acuerdo’ usted permitirá el uso de las cookies, identificadores de dispositivo, balizas web u otras tecnologías similares indicadas. Su configuración puede cambiarse desde el navegador de su dispositivo.

Para ciertos fines, los intereses legítimos pueden ser considerados por encima del consentimiento. Puede leer más sobre ello en nuestra Política de Privacidad y Cookies.